National Weather Service United States Department of Commerce

Iowa Surface Observations


000
ASUS43 KDMX 231006
RWRIA

WEATHER ROUNDUP FOR IOWA
NATIONAL WEATHER SERVICE DES MOINES IA
400 AM CST FRI FEB 23 2024

NOTE: "FAIR" INDICATES FEW OR NO CLOUDS BELOW 12,000 FEET WITH NO
SIGNIFICANT WEATHER AND/OR OBSTRUCTIONS TO VISIBILITY.

* - THESE STATIONS ARE NOT NWS STATIONS...THUS NOT UNDER NWS
QUALITY CONTROL. THEY ALSO DO NOT REPORT WEATHER SUCH
AS PRECIPITATION OR FOG.

IAZ001>003-012>014-020>022-031>034-043>046-231100-
NORTHWEST IOWA

CITY SKY/WX TMP DP RH WIND PRES REMARKS
CARROLL * CLEAR 34 32 93 W15 29.83S WCI 24 TC 1
CHEROKEE * PTCLDY 32 31 95 W3 29.83F TC 0
DENISON * CLEAR 30 30 100 SW5 29.87F WCI 25 TC -1
LE MARS * CLEAR 36 30 80 W9 29.83S WCI 29 TC 2
MAURICE * CLEAR 34 32 93 W15 29.81F WCI 24 TC 1
SHELDON * CLEAR 34 32 93 W13 29.79S WCI 25 TC 1
SIOUX CITY CLEAR 35 29 78 W9 29.87F WCI 28 TC 2
SPENCER PTCLDY 35 28 75 W9 29.79F WCI 28 TC 2
STORM LAKE * CLOUDY 36 32 87 W13 29.82S WCI 27 TC 2
$$

IAZ055>058-069>071-079>083-090>094-231100-
SOUTHWEST IOWA

CITY SKY/WX TMP DP RH WIND PRES REMARKS
ATLANTIC * CLEAR 28 27 93 S5 29.87F WCI 23 TC -2
AUDUBON * N/A 30 27 86 CALM 29.86S TC -1
CLARINDA * CLEAR 25 25 100 CALM 29.92S TC -4
COUNCIL BLFS * CLEAR 34 34 100 SW8 29.87F WCI 27 TC 1
CRESTON * CLEAR 28 28 100 W9 29.87S WCI 20 TC -2
HARLAN * CLEAR 28 28 100 W6 29.88S WCI 22 TC -2
LAMONI CLEAR 30 26 85 W7 29.87F WCI 23 TC -1
RED OAK * N/A 27 27 100 CALM 29.90F TC -3
SHENANDOAH * CLEAR 30 28 93 SW5 29.90S WCI 25 TC -1
$$

IAZ047>049-059>061-072>074-084-231100-
CENTRAL IOWA

CITY SKY/WX TMP DP RH WIND PRES REMARKS
AMES CLEAR 31 26 82 W7 29.83F WCI 24 TC -1
ANKENY * CLEAR 32 30 93 W10 29.85F WCI 24 TC 0
CHARITON * N/A 34 30 86 W7 29.85S WCI 28 TC 1
DES MOINES CLEAR 33 28 81 W6 29.85F WCI 28 TC 1
GRINNELL* CLEAR 33 31 90 W8 29.83F WCI 26 TC 1
KNOXVILLE * CLEAR 32 27 80 W10 29.84F WCI 24 TC 0
MARSHALLTOWN CLEAR 27 24 89 W6 29.80F WCI 20 TC -3
NEWTON * CLEAR 30 30 100 W7 29.82F WCI 23 TC -1
PELLA * CLEAR 34 28 80 W9 29.84F WCI 26 TC 1
PERRY * CLEAR 27 24 88 W8 29.84F WCI 19 TC -3
$$

IAZ004>006-015-016-023>025-035-036-231100-
NORTH CENTRAL IOWA

CITY SKY/WX TMP DP RH WIND PRES REMARKS
ALGONA * CLEAR 28 28 100 SW9 29.76F WCI 20 TC -2
CLARION * CLEAR 21 21 100 S7 29.80F WCI 13 TC -6
ESTHERVILLE CLEAR 32 28 85 W13 29.76F WCI 22 TC 0
FORT DODGE * CLEAR 25 23 92 S3 29.81F TC -4
MASON CITY CLEAR 31 27 85 W10 29.78F WCI 22 TC -1
FOREST CITY * CLEAR 28 27 93 SW3 29.77F TC -2
WEBSTER CITY * CLEAR 28 23 80 SW12 29.79F WCI 18 TC -2
IOWA FALLS * CLEAR 29 26 88 W7 29.81F WCI 22 TC -1
$$

IAZ007>011-017>019-026>030-037>042-050>054-066-231100-
NORTHEAST IOWA

CITY SKY/WX TMP DP RH WIND PRES REMARKS
CEDAR RAPIDS CLEAR 29 25 85 NW9 29.78F WCI 20 TC -2
CHARLES CITY * CLEAR 28 28 100 W8 29.76F WCI 20 TC -2
CLINTON * CLEAR 27 27 100 W10 29.77S WCI 17 TC -3
DECORAH * CLEAR 30 28 93 W5 29.73F WCI 25 TC -1
DUBUQUE CLEAR 32 27 81 NW10 29.74S WCI 24 TC 0
MONTICELLO * CLEAR 28 27 93 W3 29.76F TC -2
OELWEIN * CLEAR 27 27 100 W8 29.76F WCI 18 TC -3
WATERLOO CLEAR 29 24 82 W6 29.78F WCI 23 TC -2
$$

IAZ064-065-067-068-078-231100-
EAST CENTRAL IOWA

CITY SKY/WX TMP DP RH WIND PRES REMARKS
DAVENPORT CLEAR 31 26 82 W10 29.79R WCI 22 TC -1
IOWA CITY CLEAR 34 28 79 NW9 29.81F WCI 27 TC 1
MT. PLEASANT * CLEAR 36 28 75 NW8 29.81F WCI 29 TC 2
MUSCATINE * CLEAR 34 30 86 NW5 29.81S WCI 30 TC 1
QUAD CITIES CLEAR 35 28 75 W8 29.77S WCI 29 TC 2
$$

IAZ062-063-075>077-085>089-095>099-231100-
SOUTHEAST IOWA

CITY SKY/WX TMP DP RH WIND PRES REMARKS
BURLINGTON CLEAR 35 28 75 NW8 29.80S WCI 29 TC 2
FAIRFIELD * CLEAR 32 25 74 W8 29.82F WCI 25 TC 0
FORT MADISON * N/A 36 28 75 NW8 29.82R WCI 29 TC 2
KEOKUK * CLEAR 37 27 65 NW13 29.82S WCI 29 TC 3
OSKALOOSA * CLEAR 32 28 85 W10 29.84F WCI 24 TC 0
CENTERVILLE * CLEAR 30 27 86 W7 29.87S WCI 23 TC -1
OTTUMWA CLEAR 32 26 78 W9 29.83F WCI 24 TC 0
WASHINGTON * CLEAR 32 32 100 W10 29.80F WCI 24 TC 0
$$

ABBREVIATIONS USED IN REMARKS
TC - TEMPERATURES IN CELSIUS
WCI - WIND CHILL INDEX
HX - HEAT INDEX
VSB - VISIBILITY
$$



Road Conditions

Image Courtesy of the Iowa Environmental Mesonet

Midwest Surface Map

Midwest Surface Map

 

U.S. Surface Map

U.S. Surface Map

Iowa Weather Summary


000
AWUS83 KDMX 221102
RWSDMX
IAZ004>007-015>017-023>028-033>039-044>050-057>062-070>075-081>086-
092>097-221515-

Weather Summary for Iowa
National Weather Service Des Moines IA
502 AM CST Thu Feb 22 2024

Today:

Mostly cloudy skies covered the state last night and some light
showers fell across the north. At 4am, temperatures were in the mid to
upper 40s south and temperatures in the north had fallen into the
upper 20s. Rain should move off through the morning and winds will
begin to increase out of the northwest.

Despite the lingering clouds and cooler air approaching from the
north, highs today will be comparable to yesterday. Areas to the north
can expect highs in the low to mid 50s and the south will have highs
in the 60s once again. The afternoon will be breezy with gusts up to
25 mph possible, at times.

Tonight and beyond:

Colder air will continue to fill in and make for a brief cool period
Friday into Saturday where highs remain in the 40s and 50s. By Sunday,
60 degree weather will return. Temperatures will peak on Monday where
the southern half of the state will see highs in the 70s. A system
will move through Tuesday, cooling temperatures and bringing rain
chances to the east, especially. Snow will be possible as the system
exits.


$$

River Summary


000
SRUS43 KDMX 230938
RVADMX
IAC001-003-007-009-013-015-017-023-025-027-029-033-039-047-049-051-053-
063-069-073-075-077-079-081-083-091-099-109-117-121-123-125-127-135-147-
151-153-157-159-161-169-171-173-175-179-181-185-187-189-195-197-240945-

Hydrologic Summary
National Weather Service Des Moines IA
337 AM CST Fri Feb 23 2024

NOTE...we are planning to discontinue this product on March 1 2024.
If you have any questions or feedback please send an e-mail to
jeff.zogg@noaa.gov.

Hourly river stages. Time is in Central Time.

Cur Flood 6hr 24hr Obs
Location FS Stg Status Chg Chg Date/Time

...Mississippi River Basin...

.Wapsipinicon River Basin...

Wapsipinicon River
Tripoli 15.0 6.79 Non-Flood -0.02 0.22 02/23 02:45

.Iowa River Basin...

Iowa River
Rowan 12.5 3.29 Non-Flood -0.04 -0.09 02/23 03:00
Steamboat Rock 11.0 5.54 Non-Flood -0.01 0.01 02/23 03:00
Marshalltown 19.0 10.08 Non-Flood -0.02 -0.02 02/23 03:00
Tama Hwy E49 12.5 1.19 Non-Flood -0.01 -0.04 02/23 03:00
Tama US 63 20.0 6.82 Non-Flood 0.00 -0.10 02/23 03:00
Chelsea

West Main Drainage Ditch 1-2
Britt 74.83 0.00 0.00 02/23 03:15

South Fork Iowa River
Blairsburg
New Providence 2.19 -0.01 0.01 02/23 02:45

Timber Creek
Marshalltown 14.0 2.30 Non-Flood -0.02 -0.03 02/23 03:00

Richland Creek
Haven 10.37 0.00 0.00 02/23 03:00

Stein Creek
Clutier 66.77 0.04 0.01 02/23 02:30

Salt Creek
Elberon 16.0 5.50 Non-Flood 0.00 -0.02 02/23 03:00

Walnut Creek
Hartwick 14.0 1.31 Non-Flood -0.01 -0.01 02/23 03:00

Deer Creek
Toledo 4.02 0.02 0.00 02/23 03:00

Deep River
Deep River 66.50 0.01 -0.01 02/23 03:15

.Cedar River Basin...

Cedar River
Waverly 12.0 4.85 Non-Flood 0.01 0.00 02/23 03:15
Janesville 13.0 1.05 Non-Flood -0.05 0.01 02/23 02:45
Cedar Falls 89.0 78.80 Non-Flood -0.05 -0.02 02/23 02:45
Waterloo 13.0 5.34 Non-Flood -0.06 -0.05 02/23 03:00

West Fork Cedar River
Kesley
Finchford 17.0 5.75 Non-Flood -0.01 -0.02 02/23 02:45

Spring Creek (North Central Iowa)
Mason City US 65 81.34 0.01 -0.01 02/23 02:45

Winnebago River
Mason City 10.0 4.71 Non-Flood -0.02 0.11 02/23 02:30
Rockford

Clear Lake
Clear Lake 3.66 -0.02 0.19 02/23 03:00

Willow Creek
Mason City US 18 Bus 85.56 -0.01 -0.01 02/23 02:45

Shell Rock River
Northwood
Nora Springs
IFC--Rockford Foothill Ave
Marble Rock 4.0
IFC--Marble Rock 290th St 948.55 0.03 0.03 02/23 02:00
Shell Rock 12.0 7.67 Non-Flood -0.02 0.01 02/23 02:45

Beaver Creek (Northeast Iowa)
New Hartford 12.5 1.21 Non-Flood 0.01 -0.01 02/23 03:00

Black Hawk Creek
Hudson 14.0 4.62 Non-Flood -0.01 -0.03 02/23 02:45

Wolf Creek
Dysart 12.0 2.44 Non-Flood -0.02 -0.03 02/23 03:15

.Skunk River Basin...

South Skunk River
IFC--Randall Hwy R61 974.58 -0.06 -0.05 02/23 03:00
Ames Hwy E18--Skunk River
Ames McFarland Park 180th
Ames W Riverside Rd 12.5 3.06 Non-Flood -0.01 -0.05 02/23 03:00
IFC--Ames E 13th St 877.46 0.01 -0.07 02/23 02:00
Ames US 30 21.5 9.67 Non-Flood -0.04 -0.07 02/23 03:00
Colfax 18.0 7.32 Non-Flood 0.00 0.00 02/23 02:45
Oskaloosa 24.5 8.26 Non-Flood 0.00 -0.03 02/23 02:30

Ioway Creek
IFC--Story City 120th St 970.68 -0.01 -0.06 02/23 02:00
Ames Hwy E18--Ioway Creek
IFC--Gilbert 160th St 928.56 -0.02 -0.06 02/23 03:00
Ames Cameron School Rd
IFC--Ames Stange Rd 887.83 0.05 -0.12 02/23 03:00
Ames Lincoln Way 10.0 1.23 Non-Flood -0.02 -0.02 02/23 03:00
IFC--Ames S Duff Ave 871.55 -0.04 -0.01 02/23 02:00

Keigley Branch (Central Iowa)
Story City 82.31 0.01 0.01 02/23 02:30

Mud Lake Drainage Ditch 71 (North Central Iowa)
Jewell 80.35 0.04 0.01 02/23 03:15

Indian Creek
Mingo 3.64 0.00 -0.02 02/23 03:15

Middle Creek
Lacey 74.77 -0.01 -0.02 02/23 03:00

.Des Moines River Basin...

Des Moines River
Fort Dodge 10.5 4.00 Non-Flood 0.00 0.04 02/23 03:00
Stratford 19.0 5.42 Non-Flood -0.01 -0.04 02/23 03:00
Des Moines 2nd Ave 23.0 15.12 Non-Flood 0.00 -0.05 02/23 02:15
Des Moines SE 6th St 24.0 9.61 Non-Flood 0.00 -0.09 02/23 03:00
Swan 42.85 0.03 -0.06 02/23 02:15
Tracy 14.0 2.78 Non-Flood 0.00 0.00 02/23 02:15
Eddyville 63.0 47.82 Non-Flood -0.01 -0.01 02/23 02:15
Ottumwa 11.5 1.41 Non-Flood -0.17 -0.49 02/23 03:20

Saylorville Reservoir
Pool 884.0 837.19 Non-Flood 0.02 0.05 02/23 03:00
Tail 2.51 0.01 -0.20 02/23 03:00
Normal Pool 836.0

Red Rock Reservoir
Pool 780.0 742.11 Non-Flood 0.01 0.01 02/23 03:15
Tail 83.94 0.00 -0.01 02/23 03:15
Normal Pool 742.0

West Fork Des Moines River
Estherville 10.0 2.62 Non-Flood -0.04 -0.04 02/23 03:00
Emmetsburg 11.0 1.26 Non-Flood 0.00 -0.04 02/23 03:15
Humboldt 10.0 3.98 Non-Flood -0.02 0.01 02/23 03:15

East Fork Des Moines River
Algona 17.0 7.37 Non-Flood 0.03 0.34 02/23 03:15
Dakota City 20.0 7.99 Non-Flood -0.01 0.00 02/23 03:00

Pilot Creek
Rolfe 2.05 -0.02 0.98 02/23 03:15

Lizard Creek
Fort Dodge 4.86 0.00 -0.04 02/23 03:15

Boone River
Goldfield 7.34 -0.01 -0.06 02/23 03:15
Webster City 14.0 1.89 Non-Flood -0.01 -0.02 02/23 03:00

White Fox Creek
Clarion 83.51 0.00 0.00 02/23 02:45

Bluff Creek (Central Iowa)
Pilot Mound 79.42 0.02 0.03 02/23 03:15

Big Creek Ponding Area
Polk City 37.33 0.02 0.08 02/23 03:15

Big Creek Lake
Polk City 19.45 -0.01 0.02 02/23 03:15

Beaver Creek (Central Iowa)
Woodward 10.38 0.00 -0.01 02/23 03:15
Grimes 14.0 2.85 Non-Flood -0.03 -0.04 02/23 03:15

Fourmile Creek
Ankeny US 69
IFC--Ankeny NE 47th St 906.89 0.05 -0.05 02/23 02:00
Ankeny NE 86th Ave 11.0 1.46 Non-Flood 0.00 -0.01 02/23 03:15
IFC--Altoona NE 54th Ave 822.91 -0.05 -0.02 02/23 03:00
Altoona I-80
Des Moines Easton Blvd 12.5 3.52 Non-Flood -0.01 -0.02 02/23 02:30
IFC--Pleasant Hill Vandali 768.48 0.02 -0.02 02/23 02:00

North River
Norwalk Hwy R57 22.0 4.71 Non-Flood -0.01 -0.04 02/23 03:15

Middle River
Indianola 23.0 6.94 Non-Flood -0.03 -0.02 02/23 03:15

South River
Ackworth 29.0 4.98 Non-Flood -0.02 0.00 02/23 03:15

White Breast Creek
Melcher-Dallas 23.0 6.33 Non-Flood -0.02 -0.01 02/23 03:15

English Creek
Knoxville 21.0 7.94 Non-Flood 0.00 0.00 02/23 03:15

Cedar Creek
Bussey 25.0 4.25 Non-Flood 0.00 -0.03 02/23 02:15

Bear Creek
Ottumwa US 34 79.29 0.01 0.01 02/23 02:45

.Raccoon River Basin...

Raccoon River
Van Meter R Ave 17.0 2.78 Non-Flood 0.00 0.06 02/23 03:00
West Des Moines 26.50 0.00 0.07 02/23 02:45
Des Moines IA 28 36.0 20.42 Non-Flood 0.01 0.05 02/23 02:15
Des Moines Fleur Dr 12.0 2.37 Non-Flood 0.04 0.02 02/23 02:45

North Raccoon River
Sac City 7.24 -0.02 -0.01 02/23 03:15
Lanesboro 8.07 -0.01 -0.04 02/23 03:15
Jefferson 19.0 5.19 Non-Flood -0.02 -0.10 02/23 03:15
Perry 15.0 3.69 Non-Flood -0.03 -0.04 02/23 03:15

Walnut Creek (Central Iowa)
Waukee 156th St 9.0
Urbandale 142nd St 1.79 0.00 0.01 02/23 02:38
IFC--Clive NW 128th St
Clive I-80/35 9.0 3.41 Non-Flood 0.00 0.00 02/23 03:27
IFC--Clive NW 100th St 839.79 -0.02 -0.01 02/23 02:00
Des Moines 63rd St 14.0 3.05 Non-Flood 0.00 0.00 02/23 02:45

Little Walnut Creek (Central Iowa)
IFC--Clive 156th St 897.65 -0.02 0.04 02/23 03:00

North Walnut Creek (Central Iowa)
Urbandale 92nd Dr 2.67 0.37 0.32 02/23 02:23
IFC--Urbandale Hickman Rd
IFC--Windsor Heights Colle 825.41 -0.03 -0.03 02/23 02:00

South Raccoon River
Redfield 20.0 2.34 Non-Flood 0.00 -0.04 02/23 02:45

Jordan Creek
West Des Moines

Middle Raccoon River
Bayard 8.61 -0.01 -0.03 02/23 03:15
Panora 11.0 4.03 Non-Flood 0.01 -0.04 02/23 03:15

Middle Raccoon River Tributary
Carroll 15.06 -0.02 -0.01 02/23 03:15

Lake Panorama
Panora 45.31 -0.02 0.00 02/23 03:15

Brushy Fork Creek (Western Iowa)
Templeton 66.90 0.03 0.02 02/23 03:00

Buttrick Creek
Grand Junction 13.0 4.84 Non-Flood 0.01 0.01 02/23 03:15

Black Hawk Lake
Lake View 6.06 0.00 0.00 02/23 03:15

...Missouri River Basin...

.Nishnabotna River Basin...

East Nishnabotna River
Atlantic 19.0 2.30 Non-Flood -0.01 -0.02 02/23 03:00

.102 River Basin...

East Fork 102 River
Bedford 24.0 10.86 Non-Flood 0.00 0.00 02/23 02:45

.Thompson River Basin...

Thompson River
Davis City 12.0 0.98 Non-Flood 0.00 -0.01 02/23 03:00

.Chariton River Basin...

Chariton River
Chariton 19.5 3.85 Non-Flood -0.02 -0.03 02/23 02:45
Moulton 36.0 18.27 Non-Flood 0.00 0.00 02/23 02:45

South Fork Chariton River
Promise City 25.0 2.88 Non-Flood -0.01 -0.01 02/23 02:45

Rathbun Reservoir
Pool 926.0 902.92 Non-Flood 0.00 0.00 02/23 02:45
Tail 2.07 -0.02 -0.02 02/23 03:00
Normal Pool 904.0

Cooper Creek (South Central Iowa)
Centerville 7.72 -0.01 -0.05 02/23 02:30

Key: FS=Flood stage (feet)
Cur Stg=Current stage (feet)
Flood Status=Current flood category (if applicable)
6hr Chg=6-hour change (feet)
24hr Chg=24-hour change (feet)
Obs Time=Date/time observation was taken (local time)

This product is computer generated and is not monitored directly for
quality control. Data sources include the U.S. Geological Survey,
U.S. Army Corps of Engineers, state agencies and the National
Weather Service.

NOTE...we are planning to discontinue this product on March 1 2024.
If you have any questions or feedback please send an e-mail to
jeff.zogg@noaa.gov.

$$

Central Iowa Observed Snowfall

The following information (mostly PDF files) is to be considered preliminary and unofficial.  Official or certified surface observing information can be obtained from the National Climatic Data Center at https://www.ncdc.noaa.gov.

In the pdf files below, look for the snowfall column, not the snow-depth.

 

Des Moines Airport NWS Office in Johnston Waterloo
(current month updated daily)  (generally updated Monday - Friday) (current month updated daily)
 April 2018  April 2018  April 2018
 March 2018  March 2018  March 2018
 February 2018  February 2018  February 2018
 January 2018  January 2018  January 2018
 December 2017  December 2017  December 2017
 November 2017  November 2017  November 2017
 March 2017  March 2017  March 2017
 February 2017  February 2017  February 2017
 January 2017  January 2017  January 2017
 December 2016  December 2016  December 2016
 November 2016  November 2016  November 2016
 October 2016  October 2016  October 2016
 March 2016  March 2016  March 2016
 February 2016  February 2016  February 2016
 January 2016  January 2016  January 2016
 December 2015  December 2015  December 2015
 November 2015  November 2015  November 2015
 March 2015  March 2015  March 2015
 February 2015  February 2015  February 2015
 January 2015  January 2015  January 2015
 December 2014  December 2014  December 2014
 November 2014  November 2014  November 2014
     
Additional Past Weather Information for Central Iowa can be found by clicking here.

CoCoRAHS Rainfall Reports


000
SXUS53 KDMX 221515
LCODMX

COCORAHS PRECIPITATION SUMMARY
NATIONAL WEATHER SERVICE DES MOINES IA
901 AM CST THU FEB 22 2024

COCORAHS PRECIPITATION REPORTS FOR THE PREVIOUS 24 HOURS
ENDING AROUND 7 AM LOCAL TIME
THESE REPORTS ARE CONSIDERED SUPPLEMENTAL AND UNOFFICIAL

.B DMX 0222 C DH07/PP/SF/SD/SW
:
:
:CENTRAL IOWA
:
: SNOW SNOW WATER
: PCPN FALL DEPTH EQUIV
:
IA-DV-13 : DRAKESVILLE 7.4 NNW : 0.03 / MM / MM / MM
IA-BH-29 : LA PORTE CITY 5.1 NNW : T / 0.0 / MM / MM
IA-DL-40 : PERRY 1.1 NNW : T / MM / MM / MM
IA-DL-38 : ADEL 0.2 N : 0.00 / 0.0 / MM / MM
IA-KS-04 : ALGONA 0.7 SE : 0.00 / 0.0 / MM / MM
IA-WY-10 : ALLERTON 0.8 S : 0.00 / 0.0 / MM / MM
IA-SR-17 : AMES 0.9 ENE : 0.00 / 0.0 / MM / MM
IA-SR-02 : AMES 1.5 NNE : 0.00 / 0.0 / MM / MM
IA-SR-29 : AMES 2.5 W : 0.00 / 0.0 / MM / MM
IA-PK-139 : ANKENY 2.3 NE : 0.00 / 0.0 / MM / MM
IA-DV-07 : BLOOMFIELD 4.2 WNW : 0.00 / 0.0 / MM / MM
IA-DV-10 : BLOOMFIELD 8.4 NNE : 0.00 / 0.0 / MM / MM
IA-BH-07 : CEDAR FALLS 1.4 SSE : 0.00 / 0.0 / MM / MM
IA-LC-12 : CHARITON 2.0 WSW : 0.00 / 0.0 / MM / MM
IA-UN-05 : CROMWELL 0.1 S : 0.00 / 0.0 / 0.0 / MM
IA-DL-31 : DALLAS CENTER 1.5 E : 0.00 / 0.0 / MM / MM
IA-PK-73 : DES MOINES 4.1 N : 0.00 / 0.0 / MM / MM
IA-DV-14 : DRAKESVILLE 4.7 WNW : 0.00 / 0.0 / MM / MM
IA-HD-05 : ELDORA 1.2 ENE : 0.00 / 0.0 / MM / MM
IA-PC-08 : FONDA 4.5 NNW : 0.00 / 0.0 / MM / MM
IA-WB-03 : FORT DODGE 1.6 ENE : 0.00 / 0.0 / MM / MM
IA-WB-17 : FORT DODGE 1.7 NNW : 0.00 / 0.0 / 0.0 / MM
IA-SR-19 : GILBERT 0.2 W : 0.00 / 0.0 / MM / MM
IA-WR-07 : INDIANOLA 0.8 SSW : 0.00 / 0.0 / MM / MM
IA-PK-21 : JOHNSTON 3.7 NNW : 0.00 / 0.0 / 0.0 / MM
IA-DC-08 : LINEVILLE 3.8 W : 0.00 / 0.0 / MM / MM
IA-MR-06 : LOVILIA 0.6 SSE : 0.00 / 0.0 / 0.0 / 0.00
IA-CR-07 : MANNING 0.2 ESE : 0.00 / 0.0 / MM / MM
IA-CG-13 : MASON CITY 4.2 N : 0.00 / 0.0 / MM / MM
IA-DV-11 : MILTON 4.8 SSW : 0.00 / 0.0 / MM / MM
IA-DV-02 : MOULTON 3.6 ENE : 0.00 / 0.0 / MM / MM
IA-SR-34 : NEVADA 4.6 S : 0.00 / 0.0 / MM / MM
IA-TY-02 : NEW MARKET 4.7 N : 0.00 / 0.0 / MM / MM
IA-AP-09 : NUMA 1.7 W : 0.00 / 0.0 / MM / MM
IA-CL-09 : OSCEOLA 2.5 N : 0.00 / 0.0 / MM / MM
IA-CL-02 : OSCEOLA 2.5 WSW : 0.00 / 0.0 / MM / MM
IA-WP-13 : OTTUMWA 2.2 ENE : 0.00 / 0.0 / MM / MM
IA-SC-07 : SAC CITY 0.6 SSW : 0.00 / 0.0 / MM / MM
IA-SR-49 : STORY CITY 0.4 NW : 0.00 / 0.0 / MM / MM
IA-PK-125 : URBANDALE 1.0 NNE : 0.00 / 0.0 / MM / MM
IA-BH-06 : WATERLOO 1.9 SSE : 0.00 / 0.0 / 0.0 / 0.00
IA-DL-22 : WAUKEE 1.2 ENE : 0.00 / 0.0 / MM / MM
IA-HM-04 : WEBSTER CITY 0.8 SSW : 0.00 / 0.0 / MM / MM
IA-PA-05 : WEST BEND 5.4 W : 0.00 / 0.0 / MM / MM
IA-PK-37 : WINDSOR HEIGHTS 0.8 SE : 0.00 / 0.0 / 0.0 / MM
.END

$$